Regional Weather Roundup
Issued by NWS

Home | Current Version | Previous Version | Graphics & Text | Print | Product List | Glossary On
Versions: 1 2 3 4 5 6 7 8 9 10 11 12 13 14 15 16 17 18 19 20 21 22 23 24 25 26 27 28 29 30 31 32 33 34 35 36 37 38 39 40 41 42 43 44 45 46 47 48 49 50
000
ASUS43 KLMK 280102
RWRKY
KENTUCKY REGIONAL WEATHER ROUNDUP
NATIONAL WEATHER SERVICE LOUISVILLE KY
900 PM EDT THU APR 27 2017

NOTE "FAIR" INDICATES FEW OR NO CLOUDS BELOW 12,000 FEET
WITH NO SIGNIFICANT WEATHER AND/OR OBSTRUCTIONS TO VISIBILITY.

KYZ001>023-026-027-061>063-070>075-280200-
WESTERN AND SOUTH CENTRAL KENTUCKY

CITY           SKY/WX    TMP DP  RH WIND       PRES   REMARKS
PADUCAH        PTCLDY    56  49  77 CALM      29.82S
HENDERSON      CLEAR     55  48  77 S5        29.87R
OWENSBORO      PTCLDY    57  49  74 W5        29.87R
HOPKINSVILLE   MOCLDY    60  51  71 CALM      29.84S
BOWLING GREEN  PTCLDY    60  51  72 SW5       29.86R
GLASGOW        NOT AVBL
$$

KYZ024-025-028>034-038-045-046-053-280200-
NORTH CENTRAL KENTUCKY

CITY           SKY/WX    TMP DP  RH WIND       PRES   REMARKS
LOUISVILLE/SDF CLOUDY    59  48  67 SW7       29.86R
LOUISVILLE/LOU CLOUDY    59  49  69 S5        29.86R
FORT KNOX      CLEAR     55  48  75 CALM      29.84R
$$

KYZ035>037-039>044-047>052-055>060-089>105-280200-
NORTHEAST KENTUCKY

CITY           SKY/WX    TMP DP  RH WIND       PRES   REMARKS
LEXINGTON      CLEAR     58  47  66 W5        29.86R
COVINGTON      MOCLDY    56  46  69 W5        29.83R
FRANKFORT      PTCLDY    58  46  64 CALM      29.85R
$$

KYZ054-064>069-076>088-106>120-280200-
SOUTHEAST KENTUCKY

CITY           SKY/WX    TMP DP  RH WIND       PRES   REMARKS
JACKSON        PTCLDY    67  52  58 VRB7      29.84R
LONDON         PTCLDY    66  49  54 W7        29.84R
SOMERSET       CLEAR     61  52  72 CALM      29.87R
MIDDLESBORO    CLEAR     64  55  73 CALM      29.84R
MONTICELLO     PTCLDY    59  52  77 CALM      29.88R
$$





USA.gov is the U.S. government's official web portal to all federal, state and local government web resources and services.